Location: Unspecified
(52.1971°N, 0.0000°E)
Time: 05:40:04
(UTC+00:00)

ISS - Pass Details

Date: 22 May 2019
Orbit: 407 x 418 km, 51.6° (Epoch: 20 June)

Event Time Altitude Azimuth Distance (km) Brightness Sun altitude
Rises 22:10:34 0° 266° (W) 2,357 0.3 -13.7°
Reaches altitude 10° 22:12:39 10° 265° (W) 1,496 -0.7 -13.9°
Maximum altitude 22:16:01 83° 179° (S) 427 -3.9 -14.1°
Drops below altitude 10° 22:19:24 10° 91° (E) 1,503 -1.2 -14.3°
Enters shadow 22:20:04 - 90° (E) 1,778 -0.8 -14.3°
